{"data":{"norad_id":64322,"epoch":"2026-05-25T02:48:21.366144Z","epoch_age_seconds":62061,"freshness":"FRESH","line1":"1 64322U 25124F   26145.11691396  .00178042  00000+0  13595-2 0  9991","line2":"2 64322  42.9980 288.6045 0000859 286.3592  73.7181 15.70874375 54857","mean_motion":15.70874375,"eccentricity":8.59e-5,"inclination_deg":42.998,"raan_deg":288.6045,"arg_perigee_deg":286.3592,"mean_anomaly_deg":73.7181,"bstar":0.0013595,"rev_number":5485,"period_min":91.668692475807,"perigee_km":355.81831672228,"apogee_km":356.97530963138,"semimajor_km":6734.5338131768,"source":"CELESTRAK","updated_at":"2026-05-25T13:38:20.394360Z"}}